User: anonymous   Login
Location: Unspecified
(0.0000°N, 0.0000°E)
Time: 07:30:46
(UTC+00:00)
Language:

RS-13 - Orbit

View from above orbital plane
View from above orbital plane
View from above satellite
View from above satellite

Ground track
Ground track

The orbit data is extracted from the following two-line orbital elements,

1 21089U 91007A   22145.68163501  .00000070  00000-0  57275-4 0  9998
2 21089  82.9239 358.8780 0030312 120.4586 302.5189 13.74699402570082
Epoch (UTC): 25 May 2022 16:21:33
Eccentricity: 0.0030312
inclination: 82.9239°
perigee height: 960 km
apogee height: 1005 km
right ascension of ascending node: 358.8780°
argument of perigee: 120.4586°
revolutions per day: 13.74699402
mean anomaly at epoch: 302.5189°
orbit number at epoch: 57008

The dashed part of the orbit path shows where the satellite is in the earth's shadow,  

DLR